Lid_Strength_Index
1 1 1 1 1 1 1 0 0 0 0 0 1 1 1 1 2 1 1 0 2 5 4 4 4 5 5 5 8 6 7 6 7 10 11 11 11 10 11 10 11 12 13 13 12 15 17 6 7 10 8 6 5 5
1 1 1 1 1 1 0 0 0 0 0 1 1 1 1 1 1 1 2 0 0 3 4 1 1 1 2 2 5 5 6 6 6 8 9 9 11 10 11 14 8 13 10 12 11 11 7 5 6 5 5 5 5 5
1 1 1 1 1 0 0 0 1 0 0 0 0 1 1 0 0 1 1 -0 1 4 4 3 4 1 0 1 0 6 5 4 5 4 7 8 11 8 12 11 10 8 7 10 9 8 7 6 5 4 4 5 4 4
1 1 1 1 1 1 0 0 0 0 0 0 0 0 0 0 -0 -0 1 -0 1 4 8 5 1 2 0 0 1 1 3 2 3 4 7 8 10 6 9 9 9 8 7 9 9 7 6 6 5 5 4 4 4 4
1 1 1 0 0 0 0 0 0 0 0 1 1 0 0 0 -0 -1 -1 -1 -1 3 8 6 2 1 1 1 2 1 2 4 5 7 8 9 7 7 7 8 10 7 8 10 11 7 7 6 5 4 5 5 4 4
1 0 0 0 0 0 0 0 0 0 0 1 1 1 1 0 -0 0 3 -0 -1 1 6 8 3 3 2 2 2 3 3 3 4 6 7 6 5 7 11 11 7 6 5 5 7 5 5 5 4 4 5 4 4 4
0 0 1 1 1 0 0 0 0 0 1 1 1 1 0 -1 -0 2 4 2 -0 0 5 7 7 3 2 2 3 3 3 4 5 6 7 7 6 6 9 12 7 6 5 5 5 5 7 6 6 4 4 4 4 4
1 0 0 0 0 0 -0 -0 -0 0 1 1 0 -0 -1 -1 0 2 1 -0 -1 2 3 8 8 6 2 5 6 3 5 4 5 6 6 7 6 7 10 7 6 6 6 6 5 5 5 5 5 5 5 5 5 5
1 0 0 -0 -0 -1 -1 -1 -1 -0 -0 -1 -1 -0 -0 1 3 2 0 0 -1 2 7 7 10 10 3 5 5 5 5 9 5 8 8 8 9 11 8 7 7 6 7 7 6 6 6 7 7 7 7 7 7 7
0 -0 -0 -0 -1 -1 -1 -1 -1 -0 -1 -1 0 2 6 2 1 1 2 4 5 4 5 8 6 8 5 6 7 7 7 9 11 8 6 10 10 7 6 6 5 6 5 6 8 9 8 9 9 8 8 8 7 7
0 -0 -0 -1 -1 -1 -1 -1 -1 -1 -0 1 3 4 1 1 2 3 7 7 6 8 6 6 7 8 4 9 9 7 9 8 12 10 10 11 11 8 6 6 6 6 6 6 7 7 8 8 9 9 9 8 8 7
0 -0 -0 -0 -0 -1 -1 -1 -1 -0 0 1 2 1 1 4 5 9 9 7 8 10 7 8 7 6 6 5 8 8 10 10 14 8 11 12 10 7 7 7 7 6 7 7 7 8 8 8 8 8 8 8 7 6
-0 -0 -0 -0 -1 -1 -1 -1 -0 0 2 1 3 5 5 6 11 11 12 10 10 7 6 6 8 7 6 6 8 9 11 12 7 11 12 11 8 7 7 7 8 7 7 7 8 8 8 8 8 9 8 8 8 7
-0 -0 -0 -1 -1 -1 -1 -1 0 1 2 4 7 10 9 10 9 8 8 7 6 5 6 6 7 8 7 9 9 11 9 9 12 14 14 9 8 8 7 7 7 8 8 8 9 9 9 9 9 9 9 9 8 8
-0 -0 -0 -0 -1 -1 -0 0 1 1 3 6 6 10 9 7 6 5 5 5 5 4 5 7 7 7 8 10 9 9 12 13 12 13 10 8 7 7 7 7 8 8 9 9 9 9 9 9 9 10 9 9 8 8
0 0 1 0 0 -0 0 1 2 1 3 5 6 8 6 7 7 7 6 7 4 4 4 5 9 10 10 10 11 12 12 14 12 9 7 7 7 8 8 8 8 8 9 9 8 9 9 9 9 10 9 9 9 9
1 2 1 1 0 0 1 2 3 5 6 7 7 4 6 6 7 6 5 5 3 5 8 7 10 11 8 10 11 9 11 9 7 7 6 6 7 7 7 8 9 9 9 9 9 9 9 9 8 9 10 9 9 9
1 0 0 0 0 2 3 2 4 6 8 6 7 6 5 5 6 5 5 4 5 6 6 8 6 9 10 11 10 8 8 6 5 6 6 6 6 6 7 8 8 8 8 9 9 9 9 9 9 9 9 9 9 9
2 0 0 0 1 2 4 4 3 7 7 5 5 4 4 5 4 4 4 3 3 3 6 7 9 9 9 7 8 7 6 6 6 6 5 7 6 7 8 7 8 8 8 9 8 8 8 9 8 8 8 8 9 9
1 1 1 1 2 4 6 5 3 6 8 6 4 5 5 5 4 5 4 4 5 7 9 9 9 7 7 6 5 5 5 5 6 7 7 6 6 7 7 7 7 7 8 8 8 8 8 8 8 7 8 8 9 9
3 2 3 3 3 4 5 6 6 6 6 7 5 5 6 5 6 6 6 4 7 9 9 7 6 5 5 5 4 4 5 6 7 8 8 8 7 7 7 6 7 7 8 8 9 9 8 9 8 7 8 8 8 8
3 3 3 4 6 6 6 5 6 5 6 7 6 6 7 7 7 7 5 7 7 7 6 5 5 5 5 5 6 6 6 6 6 6 7 7 7 8 8 7 7 8 8 8 9 9 9 8 8 8 8 8 8 8
3 4 5 5 8 8 9 5 9 8 10 9 8 9 8 8 6 4 8 7 6 4 4 4 5 6 6 6 6 6 6 6 7 6 6 6 6 6 7 7 7 8 8 8 8 8 8 8 8 9 8 8 8 8
4 6 9 9 9 11 8 10 9 9 9 9 10 11 9 8 6 8 9 7 6 4 5 7 6 7 6 7 7 7 6 6 6 6 5 6 8 7 7 7 7 7 7 8 8 8 8 8 9 9 9 9 9 8
9 11 10 11 9 11 12 11 11 11 11 10 10 10 9 7 10 10 10 8 7 7 7 6 7 7 8 8 7 7 6 6 7 8 6 6 7 8 8 8 8 8 7 8 9 9 9 10 10 10 10 10 10 10
12 10 11 10 10 11 11 12 11 11 10 11 10 8 8 10 11 12 10 10 9 9 8 9 9 9 9 8 8 8 8 7 7 9 8 8 9 10 10 11 11 9 7 9 10 11 11 11 12 11 11 10 10 10
12 10 8 6 8 9 10 9 9 10 11 11 10 10 10 13 13 10 9 8 9 8 7 7 8 9 8 8 7 7 7 7 8 9 8 8 8 8 8 10 11 10 9 10 11 11 12 12 12 11 11 10 10 10
10 9 11 9 9 9 11 11 11 11 10 9 9 12 13 12 12 9 9 8 8 8 8 7 8 8 9 9 9 9 8 8 8 8 8 8 8 8 8 9 9 10 11 11 10 11 11 11 11 11 11 11 10 10
11 9 9 12 10 10 10 10 10 9 8 9 11 12 11 9 8 8 8 8 8 9 10 11 10 9 9 8 8 8 8 8 10 12 13 12 11 10 9 9 10 10 10 10 10 10 11 11 11 11 11 10 10 9
10 8 10 10 11 12 9 7 8 7 8 8 9 10 9 8 8 8 9 9 11 11 11 10 10 10 11 11 11 10 8 7 8 9 11 12 11 9 9 9 10 10 10 11 11 11 10 10 10 10 10 9 9 9
9 9 11 10 11 8 7 7 7 8 8 9 8 10 11 9 10 9 10 10 10 10 10 11 10 10 10 10 10 10 10 7 7 7 8 8 8 8 9 10 10 10 10 11 11 11 11 11 11 11 11 11 10 10
10 11 12 13 12 7 8 10 10 11 11 11 11 10 10 11 12 11 10 9 10 11 12 11 10 10 8 8 8 7 7 7 7 7 7 8 9 9 9 10 10 10 11 12 12 12 12 12 12 12 11 11 11 10
11 11 11 12 13 13 11 12 13 14 13 14 13 12 11 12 14 11 9 9 10 9 9 9 8 7 7 8 7 7 8 7 8 8 9 9 10 10 10 10 11 11 12 12 11 11 12 12 12 11 11 11 11 11